Weather History for KEZS - September, 2012

Change the Weather History Date:

Monday, September 17, 2012

  Actual Average (KGRB) Record (KGRB)
Temperature  
Mean Temperature 56 °F 59 °F  
Max Temperature 64 °F 70 °F 90 °F (1955)
Min Temperature 46 °F 48 °F 32 °F (1959)
Degree Days  
Heating Degree Days 9 7  
Month to date heating degree days 81  
Since 1 July heating degree days 144  
Cooling Degree Days 0 1  
Month to date cooling degree days 27  
Year to date cooling degree days 389  
Growing Degree Days 6 (Base 50)    
Moisture  
Dew Point 49 °F    
Average Humidity 78    
Maximum Humidity 94    
Minimum Humidity 59    
Precipitation  
Precipitation 0.26 in 0.10 in 2.81 in (1914)
Month to date precipitation 1.72  
Year to date precipitation 22.12  
Snow  
Snow 0.00 in 0.00 in 0.00 in ()
Month to date snowfall 0.0  
Since 1 July snowfall 0.0  
Since 1 September snowfall 0.0  
Snow Depth -    
Sea Level Pressure  
Sea Level Pressure 29.85 in    
Wind  
Wind Speed 3 mph (NW)    
Max Wind Speed 15 mph    
Max Gust Speed 21 mph    
Visibility 10 miles    
Events Rain , Thunderstorm    
T = Trace of Precipitation, MM = Missing Value Source: NWS Daily Summary

Daily Weather History Graph

Daily Weather History Graph

Search for Another Location

Airport or City:

Trip Planner

Search our weather history database for the weather conditions in past years. The results will help you decide how hot, cold, wet, or windy it might be!

Date:

Astronomy

Sep. 17, 2012 Rise Set
Actual Time 6:36 AM CDT 7:00 PM CDT
Civil Twilight 6:06 AM CDT 7:29 PM CDT
Nautical Twilight 5:32 AM CDT 8:04 PM CDT
Astronomical Twilight 4:56 AM CDT 8:39 PM CDT
Moon 8:32 AM CDT (9/17) 7:33 PM CDT (9/17)
Length of Visible Light 13h 22m
Length of Day
12h 24m
Waxing Crescent, 3% of the Moon is Illuminated
Sep 17
Waxing Crescent
Sep 22
First Quarter
Sep 29
Full
Oct 8
Last Quarter
Oct 15
New

Hourly Weather History & Observations

Time (CDT) Temp. Windchill Dew Point Humidity Pressure Visibility Wind Dir Wind Speed Gust Speed Precip Events Conditions
12:15 AM 60.8 °F - 46.4 °F 59% 29.89 in 10.0 mi Calm Calm - N/A   Mostly Cloudy
12:35 AM 60.8 °F - 46.4 °F 59% 29.88 in 10.0 mi Calm Calm - N/A   Mostly Cloudy
12:55 AM 60.8 °F - 46.4 °F 59% 29.88 in 10.0 mi Calm Calm - N/A   Mostly Cloudy
1:15 AM 59.0 °F - 46.4 °F 63% 29.87 in 10.0 mi Calm Calm - N/A   Mostly Cloudy
1:35 AM 59.0 °F - 46.4 °F 63% 29.87 in 10.0 mi Calm Calm - N/A   Scattered Clouds
1:55 AM 59.0 °F - 46.4 °F 63% 29.87 in 10.0 mi Calm Calm - N/A   Clear
2:15 AM 57.2 °F - 46.4 °F 67% 29.86 in 10.0 mi Calm Calm - N/A   Clear
2:35 AM 57.2 °F - 46.4 °F 67% 29.85 in 10.0 mi Calm Calm - N/A   Clear
2:55 AM 57.2 °F - 46.4 °F 67% 29.84 in 10.0 mi Calm Calm - N/A   Clear
3:15 AM 57.2 °F - 46.4 °F 67% 29.84 in 10.0 mi Calm Calm - N/A   Clear
3:35 AM 55.4 °F - 46.4 °F 72% 29.83 in 10.0 mi Calm Calm - N/A   Scattered Clouds
3:55 AM 55.4 °F - 46.4 °F 72% 29.83 in 10.0 mi Calm Calm - N/A   Mostly Cloudy
4:15 AM 55.4 °F - 48.2 °F 77% 29.84 in 10.0 mi Calm Calm - N/A   Scattered Clouds
4:55 AM 55.4 °F - 48.2 °F 77% 29.84 in 10.0 mi WSW 3.5 mph - N/A   Scattered Clouds
5:15 AM 55.4 °F - 50.0 °F 82% 29.84 in 10.0 mi Calm Calm - N/A   Mostly Cloudy
5:35 AM 55.4 °F - 50.0 °F 82% 29.84 in 10.0 mi West 3.5 mph - N/A   Mostly Cloudy
5:55 AM 55.4 °F - 50.0 °F 82% 29.84 in 10.0 mi Calm Calm - N/A   Mostly Cloudy
6:15 AM 53.6 °F - 50.0 °F 88% 29.84 in 10.0 mi Calm Calm - N/A   Scattered Clouds
6:35 AM 53.6 °F - 50.0 °F 88% 29.83 in 10.0 mi Calm Calm - N/A   Clear
7:15 AM 55.4 °F - 50.0 °F 82% 29.85 in 10.0 mi Calm Calm - N/A   Mostly Cloudy
7:35 AM 55.4 °F - 50.0 °F 82% 29.85 in 10.0 mi Calm Calm - N/A   Overcast
7:55 AM 57.2 °F - 51.8 °F 82% 29.86 in 10.0 mi WNW 5.8 mph - N/A   Mostly Cloudy
8:15 AM 59.0 °F - 51.8 °F 77% 29.86 in 10.0 mi NW 8.1 mph - N/A   Scattered Clouds
8:35 AM 60.8 °F - 51.8 °F 72% 29.87 in 10.0 mi NW 5.8 mph - N/A   Scattered Clouds
8:55 AM 60.8 °F - 51.8 °F 72% 29.87 in 10.0 mi NNW 3.5 mph - N/A   Mostly Cloudy
9:15 AM 60.8 °F - 51.8 °F 72% 29.87 in 10.0 mi NNW 5.8 mph - N/A   Overcast
9:35 AM 62.6 °F - 51.8 °F 68% 29.85 in 10.0 mi NNW 5.8 mph - N/A   Mostly Cloudy
9:55 AM 62.6 °F - 51.8 °F 68% 29.84 in 10.0 mi NNW 3.5 mph - N/A   Scattered Clouds
10:35 AM 64.4 °F - 51.8 °F 64% 29.83 in 10.0 mi Calm Calm - N/A   Clear
10:55 AM 64.4 °F - 51.8 °F 64% 29.83 in 10.0 mi Calm Calm - N/A   Scattered Clouds
11:15 AM 64.4 °F - 51.8 °F 64% 29.84 in 10.0 mi West 3.5 mph - N/A   Mostly Cloudy
11:35 AM 64.4 °F - 51.8 °F 64% 29.84 in 10.0 mi WNW 4.6 mph - N/A   Overcast
11:55 AM 64.4 °F - 51.8 °F 64% 29.84 in 10.0 mi WNW 8.1 mph - N/A   Overcast
12:15 PM 64.4 °F - 51.8 °F 64% 29.84 in 10.0 mi NW 6.9 mph - N/A   Overcast
12:35 PM 64.4 °F - 51.8 °F 64% 29.84 in 10.0 mi WNW 6.9 mph - N/A   Overcast
12:55 PM 64.4 °F - 51.8 °F 64% 29.83 in 10.0 mi WNW 8.1 mph - N/A   Overcast
1:15 PM 62.6 °F - 51.8 °F 68% 29.84 in 10.0 mi WNW 9.2 mph - N/A Thunderstorm Overcast
1:35 PM 62.6 °F - 51.8 °F 68% 29.83 in 10.0 mi WNW 9.2 mph - N/A   Overcast
1:55 PM 60.8 °F - 51.8 °F 72% 29.83 in 10.0 mi WNW 6.9 mph - N/A   Overcast
2:15 PM 60.8 °F - 51.8 °F 72% 29.84 in 10.0 mi NW 6.9 mph - N/A   Overcast
2:35 PM 59.0 °F - 51.8 °F 77% 29.84 in 10.0 mi West 8.1 mph - N/A   Overcast
2:55 PM 57.2 °F - 53.6 °F 88% 29.84 in 5.0 mi WNW 6.9 mph - 0.01 in Rain Rain
3:15 PM 57.2 °F - 53.6 °F 88% 29.84 in 7.0 mi West 4.6 mph - 0.03 in Rain Rain
3:35 PM 57.2 °F - 53.6 °F 88% 29.84 in 5.0 mi West 6.9 mph - 0.05 in Rain Rain
3:55 PM 55.4 °F - 51.8 °F 88% 29.84 in 5.0 mi North 8.1 mph - 0.08 in Rain Heavy Rain
4:15 PM 53.6 °F - 51.8 °F 94% 29.84 in 7.0 mi NNW 3.5 mph - 0.03 in Rain Light Rain
4:35 PM 53.6 °F - 51.8 °F 94% 29.83 in 10.0 mi North 6.9 mph - 0.07 in Rain Rain
4:55 PM 53.6 °F - 51.8 °F 94% 29.83 in 10.0 mi North 8.1 mph - 0.10 in Rain Light Rain
5:15 PM 53.6 °F - 51.8 °F 94% 29.83 in 10.0 mi North 3.5 mph - 0.02 in Rain Light Rain
5:55 PM 53.6 °F - 51.8 °F 94% 29.84 in 5.0 mi North 8.1 mph - 0.05 in   Heavy Drizzle
6:15 PM 53.6 °F - 50.0 °F 88% 29.84 in 7.0 mi North 15.0 mph 20.7 mph 0.01 in Rain Light Rain
6:35 PM 53.6 °F - 50.0 °F 88% 29.85 in 10.0 mi North 10.4 mph - 0.02 in   Light Drizzle
6:55 PM 53.6 °F - 50.0 °F 88% 29.86 in 10.0 mi North 6.9 mph - 0.02 in   Overcast
7:15 PM 51.8 °F - 50.0 °F 94% 29.86 in 10.0 mi North 4.6 mph - N/A   Overcast
7:35 PM 51.8 °F - 50.0 °F 94% 29.86 in 10.0 mi NNW 5.8 mph - N/A   Overcast
7:55 PM 51.8 °F - 46.4 °F 82% 29.87 in 10.0 mi NNW 3.5 mph - N/A   Overcast
8:15 PM 51.8 °F - 48.2 °F 88% 29.88 in 10.0 mi NW 4.6 mph - N/A   Overcast
8:35 PM 51.8 °F - 46.4 °F 82% 29.89 in 10.0 mi NW 5.8 mph - N/A Rain Light Rain
8:55 PM 51.8 °F - 46.4 °F 82% 29.89 in 10.0 mi North 5.8 mph - N/A Rain Light Rain
9:15 PM 50.0 °F - 46.4 °F 87% 29.89 in 10.0 mi NW 3.5 mph - N/A   Overcast
9:35 PM 50.0 °F - 46.4 °F 87% 29.88 in 10.0 mi NW 3.5 mph - N/A   Overcast
9:55 PM 50.0 °F - 46.4 °F 87% 29.88 in 10.0 mi WNW 4.6 mph - N/A   Mostly Cloudy
10:15 PM 48.2 °F - 46.4 °F 93% 29.88 in 10.0 mi NW 5.8 mph - N/A   Mostly Cloudy
10:35 PM 48.2 °F - 46.4 °F 93% 29.88 in 10.0 mi NW 6.9 mph - N/A   Scattered Clouds
10:55 PM 50.0 °F - 46.4 °F 87% 29.89 in 10.0 mi NNW 5.8 mph - N/A   Mostly Cloudy
11:15 PM 48.2 °F - 44.6 °F 87% 29.88 in 10.0 mi NNW 6.9 mph - N/A   Mostly Cloudy
11:35 PM 48.2 °F - 44.6 °F 87% 29.89 in 10.0 mi NNW 5.8 mph - N/A   Scattered Clouds
11:55 PM 46.4 °F 43.5 °F 42.8 °F 87% 29.89 in 10.0 mi NW 5.8 mph - N/A   Clear